Wind_Speed
14 16 18 19 21 22 22 23 25 25 20 18 15 15 11 6 7 10 7 10 12 14 12 6 4 4 4 4 4 2 4 2 4 5 2 1 2 1 1 2 2 3 3 2 4
14 16 18 19 21 23 23 24 25 26 20 18 15 14 10 5 3 11 10 14 13 11 7 7 4 7 4 3 3 4 3 7 4 3 2 1 0 2 2 2 3 3 3 1 8
14 16 18 21 22 24 25 25 25 28 20 15 16 13 8 3 1 4 16 15 10 8 5 2 2 1 4 2 4 0 2 2 1 2 1 1 3 1 1 3 6 5 2 4 6
15 17 19 21 23 24 26 26 27 29 19 15 15 11 4 3 1 7 16 11 8 6 4 3 4 3 3 3 1 3 3 1 2 2 1 1 3 5 5 7 2 1 3 5 8
16 19 20 22 23 25 27 27 28 28 16 13 11 9 2 4 1 11 16 10 5 3 8 4 4 2 4 3 2 4 3 2 2 4 4 2 6 5 9 9 7 7 6 8 9
16 18 21 23 25 27 30 29 32 22 12 10 9 6 2 3 3 11 14 7 11 9 8 8 2 0 4 2 4 4 3 4 2 3 2 2 4 1 6 2 5 3 7 6 9
14 17 20 23 26 28 31 30 32 14 9 7 6 4 5 2 5 11 9 8 8 6 3 4 2 1 3 2 2 1 5 4 3 3 1 1 5 6 5 5 8 6 6 6 7
14 16 19 23 26 29 30 31 23 10 8 5 5 2 2 4 5 10 9 5 6 5 5 5 4 3 3 2 5 4 4 4 3 6 3 3 6 5 4 5 6 6 5 5 5
13 15 17 21 24 27 28 31 11 5 8 5 2 2 2 4 3 10 10 5 4 5 6 4 3 3 4 3 4 7 2 3 7 4 4 5 12 5 3 7 11 9 7 5 5
14 15 17 19 22 24 24 19 5 5 8 2 4 3 5 5 7 10 8 6 4 1 3 6 5 3 4 6 1 3 3 3 4 5 3 3 16 8 4 6 10 8 9 7 7
14 15 16 18 19 21 23 4 9 4 13 2 4 3 4 13 4 6 8 4 2 7 5 4 6 3 1 2 2 2 1 4 4 2 3 2 12 17 9 3 5 6 7 8 9
15 16 16 17 18 14 14 8 5 2 5 1 3 2 1 5 4 7 12 3 5 3 5 5 2 2 1 2 1 1 2 4 4 1 1 4 17 3 1 1 1 4 6 7 8
15 15 17 16 15 9 13 8 4 4 3 4 1 1 2 3 2 6 5 2 7 5 5 2 2 1 1 1 1 2 3 2 4 6 1 6 6 1 2 1 1 3 3 5 8
14 14 14 14 6 7 2 3 2 2 4 4 2 1 1 1 0 3 2 3 3 2 2 3 2 1 0 3 4 3 2 1 4 3 2 5 5 5 2 5 3 7 7 9 11
16 14 13 7 9 4 1 2 1 2 4 3 0 0 1 1 1 1 1 1 4 2 4 4 3 3 3 4 5 5 2 1 0 2 3 1 2 6 2 1 4 7 10 11 11
20 16 13 9 7 5 3 4 1 5 6 1 1 1 1 1 1 2 1 4 2 2 2 4 2 2 3 1 1 1 2 3 3 3 2 1 2 5 3 2 5 5 7 9 11
23 19 21 14 3 6 1 4 4 4 1 5 4 2 2 2 1 1 2 1 1 3 3 4 2 2 2 1 3 2 3 4 5 3 4 1 1 10 4 4 4 6 9 9 8
17 19 23 20 13 11 5 3 5 5 5 2 5 4 4 5 2 1 2 1 3 3 2 3 5 6 3 2 3 2 1 3 5 3 4 4 6 5 4 5 4 3 6 5 6
5 14 10 21 19 14 3 6 8 7 4 6 3 2 2 2 3 3 5 5 4 6 5 3 5 1 2 1 2 3 2 3 3 2 1 3 6 8 3 5 3 3 3 5 5
3 5 5 15 22 13 5 10 8 9 7 4 8 7 6 4 4 4 5 4 3 6 3 3 4 0 1 2 3 2 4 3 2 3 5 4 5 6 2 4 4 4 4 4 3
5 2 5 10 17 3 12 8 5 7 8 8 10 7 6 6 7 5 6 3 5 5 6 5 4 2 3 7 9 3 3 2 2 4 4 2 5 5 5 5 6 6 6 4 4
6 3 4 17 4 3 6 6 4 5 3 5 4 8 9 10 7 7 9 8 9 7 7 6 4 5 10 2 0 3 6 7 4 5 3 1 10 3 5 4 4 6 6 5 4
2 2 1 2 4 4 1 2 3 4 4 5 6 4 3 7 4 8 6 2 6 7 7 5 2 3 3 2 1 5 5 4 3 3 10 5 8 0 4 4 5 5 6 6 6
3 2 2 1 0 1 1 2 2 1 1 1 3 4 3 5 6 3 4 3 4 3 0 6 6 6 12 3 3 4 5 6 8 4 5 12 22 8 9 8 6 6 7 7 7
2 3 2 2 3 8 3 1 2 4 3 4 3 11 6 4 5 7 6 2 1 6 4 3 4 6 13 8 8 10 12 8 10 15 9 19 15 12 15 6 6 7 6 7 9
2 2 0 1 1 8 6 5 8 7 2 2 1 1 6 8 7 4 4 4 5 4 8 6 6 5 5 10 12 16 15 13 16 17 17 22 26 21 21 5 5 6 5 7 7
8 5 2 3 1 3 5 9 9 10 5 8 7 5 8 10 8 4 3 4 6 7 8 4 3 3 5 5 4 10 10 15 12 15 18 18 24 21 8 6 4 3 3 4 5
Wind_Direction
31 25 20 16 13 10 7 4 1 359 356 350 351 352 351 350 26 55 44 342 323 330 345 347 1 33 58 65 51 115 65 143 183 160 237 309 32 242 269 229 233 208 205 188 184
21 18 15 11 8 5 2 0 358 356 354 349 349 351 348 358 49 54 4 336 332 334 343 40 8 360 49 36 24 73 100 199 184 200 226 333 192 306 337 333 279 286 233 235 169
13 10 7 4 3 1 358 356 353 353 349 350 347 348 351 7 50 3 351 344 343 332 326 17 57 80 78 35 6 116 134 165 308 242 216 275 290 291 5 295 233 239 257 169 173
6 4 1 359 358 356 354 351 349 350 345 344 347 353 16 33 348 343 350 353 357 359 347 340 23 63 89 105 338 84 46 105 325 23 11 299 326 298 197 234 181 269 259 187 191
359 357 357 355 353 351 350 347 344 343 342 343 351 358 16 53 356 342 348 356 4 43 43 6 46 61 91 68 41 46 16 295 306 311 271 316 254 238 259 254 267 245 207 212 200
356 354 354 353 350 348 346 344 342 340 342 343 352 355 19 68 352 352 351 17 26 53 44 33 81 186 104 114 127 202 230 271 352 332 280 263 264 222 257 211 300 247 242 237 213
350 351 351 350 348 345 344 343 341 344 348 344 358 19 60 98 356 3 10 30 30 35 76 63 23 49 137 98 329 356 356 29 33 330 269 279 280 234 276 320 315 307 278 258 229
344 347 349 349 347 344 342 341 341 348 352 345 4 10 86 1 346 8 27 43 44 41 55 39 12 92 39 110 30 50 60 24 359 354 328 15 285 297 354 347 318 318 303 271 249
333 340 346 347 346 344 345 338 349 1 354 349 343 56 42 352 12 357 7 3 6 63 60 54 57 62 25 51 21 12 19 357 326 39 347 47 288 256 334 327 298 303 296 292 278
327 335 341 344 345 348 352 343 350 18 346 337 36 28 25 330 325 338 355 7 28 1 40 45 46 56 30 37 310 324 345 315 253 327 8 260 272 295 301 274 291 313 303 288 269
319 328 335 342 346 353 1 24 13 2 37 97 284 294 326 331 319 360 354 349 10 50 35 6 59 42 346 42 106 126 201 252 251 307 327 308 293 297 324 350 356 3 345 323 289
310 319 328 337 343 2 33 77 130 196 320 330 277 273 289 340 327 347 6 56 44 49 335 20 100 201 171 110 103 155 276 286 294 270 299 326 289 307 175 85 30 2 342 328 312
301 312 321 333 335 2 63 98 110 144 100 305 266 197 219 41 359 314 22 22 47 36 18 155 179 230 139 311 336 247 209 270 249 328 341 300 288 194 226 245 311 309 303 306 311
286 298 310 332 312 351 67 67 46 162 61 281 253 265 229 80 299 300 21 128 64 90 345 244 327 163 244 262 137 289 198 236 293 33 293 9 285 300 295 307 313 332 343 335 340
274 282 295 302 308 307 289 3 51 162 7 277 219 288 291 215 144 317 301 208 138 177 112 243 188 208 227 220 182 213 192 229 82 100 16 86 100 268 343 314 306 324 345 345 341
257 257 258 257 255 263 278 323 136 44 254 11 245 275 232 322 325 343 47 42 77 92 2 267 335 215 217 131 244 121 123 61 58 87 357 237 132 288 226 182 307 316 333 336 340
249 237 218 219 209 204 275 327 31 148 329 196 180 174 177 208 168 50 56 358 189 4 0 329 262 354 350 54 359 41 30 336 340 9 231 189 237 244 210 215 210 300 319 331 343
222 220 209 208 202 176 131 44 208 245 223 121 150 149 207 166 179 117 112 300 206 97 129 162 309 166 180 205 192 51 105 153 263 264 292 330 239 250 195 177 211 253 285 315 351
212 204 193 193 194 181 122 207 192 191 195 152 75 171 241 242 183 155 190 203 208 172 185 177 274 154 140 150 139 168 157 151 111 110 353 245 299 297 256 246 244 265 323 340 349
227 205 197 187 180 159 207 225 208 178 146 146 185 169 185 208 178 181 208 190 197 177 134 199 291 294 103 66 30 194 153 74 16 285 268 277 283 249 246 196 219 251 284 303 326
237 250 175 175 162 173 223 220 202 197 150 171 195 200 198 178 195 199 212 201 199 147 154 155 174 202 125 201 183 162 200 101 146 170 214 287 246 218 222 203 211 252 262 272 295
287 194 188 158 185 219 205 186 178 189 148 181 171 197 183 184 195 212 206 196 159 147 176 207 171 219 212 185 178 192 210 160 170 224 234 216 264 252 226 235 224 263 277 286 280
281 323 202 205 211 219 296 207 223 189 187 160 183 205 188 179 224 221 188 100 142 155 175 181 209 277 295 0 351 216 196 187 124 126 231 224 260 257 252 248 253 262 269 274 280
339 269 235 248 63 39 85 283 238 309 270 171 186 139 164 216 231 224 188 169 134 156 238 146 197 199 255 231 119 197 206 204 204 194 232 229 268 253 284 256 265 260 261 268 264
189 247 280 206 232 228 256 309 233 234 233 202 244 234 196 237 234 218 184 154 164 146 114 215 255 214 254 250 259 254 251 210 205 230 226 264 235 264 261 253 243 243 261 282 272
212 213 270 219 224 207 223 187 215 262 248 285 270 293 275 237 229 203 198 184 195 163 174 172 271 211 258 234 236 251 246 219 234 242 245 251 267 258 277 270 268 285 313 294 290
198 241 262 171 27 229 208 225 217 211 210 214 254 282 268 248 253 273 269 242 199 175 195 181 214 191 259 210 251 268 230 217 218 233 231 243 250 273 276 261 275 311 327 326 337
Height
842 841 839 838 836 833 830 828 825 822 819 816 814 812 811 810 809 806 809 811 809 805 802 800 800 799 798 802 805 809 825 833 827 831 820 817 817 812 812 813 813 811 811 811 812
843 842 840 838 837 834 831 828 825 821 818 816 814 812 811 810 809 809 813 811 808 805 803 799 802 800 805 807 809 815 827 823 819 820 820 818 818 816 815 816 814 812 812 812 813
845 843 842 840 838 835 832 828 825 821 818 815 813 811 810 810 811 814 812 809 807 805 804 802 800 800 807 809 815 818 822 820 818 817 818 818 820 817 819 818 814 811 809 812 813
846 844 842 840 838 835 831 828 824 821 817 815 813 811 809 810 819 815 812 809 807 805 805 804 802 805 812 812 814 817 819 819 818 818 818 820 819 818 818 808 806 808 807 808 809
847 845 843 840 838 835 831 827 823 820 816 815 813 811 811 813 818 815 813 810 808 805 806 807 807 809 815 816 816 818 821 818 817 820 819 819 817 816 808 803 803 803 803 803 805
846 845 843 840 837 834 830 826 821 817 815 814 813 812 812 816 816 815 813 811 809 807 808 809 811 811 814 816 816 818 817 818 820 819 819 818 816 814 801 800 800 801 802 804 805
846 844 842 840 836 832 829 824 820 816 815 814 813 812 813 819 816 815 813 812 811 811 810 810 812 812 814 818 818 819 818 819 820 818 817 818 814 815 803 804 804 803 802 802 805
846 844 841 838 835 831 827 823 818 817 815 814 813 813 818 817 817 815 813 813 813 813 813 813 814 815 816 818 821 824 826 827 821 822 820 819 817 805 805 806 803 803 802 803 803
844 842 840 837 833 829 825 821 817 817 816 815 815 813 818 817 818 817 815 815 814 813 813 813 815 822 821 826 834 835 834 834 828 823 824 822 816 809 806 808 804 804 802 803 803
844 842 839 836 832 827 823 818 817 817 817 817 817 819 819 825 822 819 817 815 815 814 814 816 824 829 835 834 846 836 838 838 839 830 828 829 818 807 808 808 803 806 803 802 800
844 842 840 837 833 828 822 817 822 822 821 831 833 833 828 826 822 820 818 816 816 818 827 827 833 840 836 835 836 838 841 843 836 831 831 829 823 805 807 809 808 806 804 802 800
843 842 840 838 834 830 826 829 836 839 838 831 830 829 828 829 827 821 818 819 821 829 828 831 835 833 833 834 836 839 840 842 836 833 835 832 818 808 805 805 806 806 804 802 798
841 841 840 839 835 832 831 834 833 833 840 833 830 829 828 828 830 828 823 825 831 832 838 834 833 831 832 834 836 839 839 840 841 837 835 838 819 805 805 806 805 804 804 801 797
838 839 840 840 840 836 834 834 834 832 847 835 830 828 828 829 828 827 825 825 829 833 836 836 833 833 836 836 838 838 838 837 839 843 841 842 827 812 809 808 806 804 802 800 795
835 837 838 839 839 838 836 833 831 834 861 833 827 827 827 828 829 826 826 824 829 830 832 827 832 833 835 832 832 832 834 837 840 852 856 846 851 810 812 804 804 803 802 801 799
831 833 835 837 838 838 836 835 833 850 855 831 827 827 828 828 828 827 828 827 830 832 836 834 835 834 831 833 833 834 838 847 860 859 860 845 844 816 805 803 807 804 802 801 798
827 827 828 833 833 836 837 838 852 860 827 825 827 826 826 826 826 827 828 830 830 835 836 836 835 837 837 837 837 837 839 846 849 858 834 847 847 804 800 803 804 805 805 802 800
821 823 821 826 830 831 835 845 847 830 826 817 821 824 826 824 827 830 833 833 831 833 847 844 839 833 833 834 836 842 839 853 855 851 841 854 827 798 803 798 798 800 805 802 799
818 818 817 819 825 829 834 838 829 829 820 826 826 826 827 826 826 826 830 833 827 833 836 846 839 834 833 833 834 841 846 846 852 872 872 840 829 804 809 807 801 797 798 798 797
816 814 813 814 818 824 827 812 810 805 812 815 821 821 827 829 828 830 830 825 823 827 827 832 841 836 837 837 842 839 844 851 863 861 855 840 839 807 798 799 800 799 798 797 795
815 813 810 811 816 817 804 804 801 795 797 809 813 814 819 821 824 828 820 821 820 826 827 834 838 838 836 838 834 846 844 849 851 858 855 853 814 808 801 799 799 800 799 795 795
811 812 811 810 813 804 799 798 795 793 795 797 802 802 808 812 817 818 814 806 814 820 827 827 839 841 832 828 830 831 833 833 842 849 864 861 801 798 803 798 799 799 801 798 795
813 810 809 809 801 800 803 798 797 794 794 797 798 798 800 806 814 810 808 811 811 815 820 825 834 840 826 832 833 831 832 831 834 837 821 842 803 801 805 801 799 800 799 797 797
817 814 810 808 802 800 801 803 799 799 798 797 798 802 806 805 804 801 806 809 812 814 815 816 831 821 806 811 825 832 831 830 821 829 822 813 796 798 798 799 797 796 797 796 793
817 814 806 806 805 803 806 806 803 802 801 800 798 799 803 806 804 803 809 810 813 813 820 825 822 825 817 824 822 823 822 823 826 820 820 787 798 788 783 792 794 792 791 792 790
813 812 809 808 804 806 806 802 805 810 810 806 806 806 806 804 807 810 808 810 813 817 819 823 820 822 821 820 819 814 805 812 813 812 811 806 796 781 775 789 791 792 793 791 788
807 807 807 807 806 803 799 799 798 796 802 804 805 805 808 807 804 801 805 808 810 815 816 821 818 822 817 817 817 816 807 802 795 794 792 798 775 768 782 787 788 790 794 793 791